This is the latest recevied weather packets stored in our database for station/object KI4BIY. If no packets are shown the sender has not sent any weather packets the latest 10 day(s).
| Time | Temp. | Humidity | Pressure | Rain* | Wind** | Luminosity | Snow |
|---|---|---|---|---|---|---|---|
| 1777600081 | 12.78° C | 75% | 1015.1 hPa | 0 mm | - | 0 W/m² | - |
| 1777599777 | 12.78° C | 75% | 1015 hPa | 0 mm | - | 0 W/m² | - |
| 1777599473 | 12.78° C | 78% | 1015 hPa | 0 mm | - | 0 W/m² | - |
| 1777599169 | 12.78° C | 71% | 1015.2 hPa | 0 mm | - | 0 W/m² | - |
| 1777598864 | 12.78° C | 78% | 1015 hPa | 0 mm | - | 0 W/m² | - |
| 1777598563 | 12.78° C | 75% | 1015.1 hPa | 0 mm | - | 0 W/m² | - |
| 1777598258 | 12.78° C | 70% | 1015.2 hPa | 0 mm | - | 0 W/m² | - |
| 1777597957 | 13.33° C | 74% | 1014.8 hPa | 0 mm | - | 0 W/m² | - |
| 1777597656 | 13.33° C | 70% | 1014.8 hPa | 0 mm | - | 0 W/m² | - |
| 1777597352 | 13.33° C | 71% | 1014.7 hPa | 0 mm | - | 0 W/m² | - |
| 1777597047 | 13.33° C | 74% | 1014.8 hPa | 0 mm | - | 0 W/m² | - |
| 1777596744 | 13.89° C | 71% | 1014.6 hPa | 0 mm | - | 0 W/m² | - |
| 1777596440 | 13.89° C | 72% | 1014.6 hPa | 0 mm | - | 0 W/m² | - |
| 1777596138 | 13.89° C | 68% | 1014.4 hPa | 0 mm | - | 0 W/m² | - |
| 1777595834 | 13.89° C | 68% | 1014.7 hPa | 0 mm | - | 0 W/m² | - |
| 1777595529 | 14.44° C | 66% | 1014.5 hPa | 0 mm | - | 3 W/m² | - |
| 1777595226 | 14.44° C | 66% | 1014.5 hPa | 0 mm | - | 4 W/m² | - |
| 1777594921 | 14.44° C | 63% | 1014.5 hPa | 0 mm | - | 7 W/m² | - |
| 1777594618 | 15° C | 64% | 1014.6 hPa | 0 mm | - | 10 W/m² | - |
| 1777594315 | 15° C | 63% | 1014.3 hPa | 0 mm | - | 12 W/m² | - |
| 1777594011 | 15° C | 63% | 1014.1 hPa | 0 mm | - | 12 W/m² | - |
| 1777593707 | 15.56° C | 63% | 1014.2 hPa | 0 mm | - | 14 W/m² | - |
| 1777593403 | 15.56° C | 60% | 1014.2 hPa | 0 mm | - | 19 W/m² | - |
| 1777593102 | 15.56° C | 58% | 1013.7 hPa | 0 mm | - | 24 W/m² | - |
| 1777592801 | 15.56° C | 57% | 1014.5 hPa | 0 mm | - | 22 W/m² | - |
* Rain latest hour (hover to see other rain measurements)
** Current wind speed in m/s (hover to see current wind gust speed)